Latest Coastal Weather Observations for Low Head

IDT60701

Issued at 8:32 am EST Monday 31 August 2015 (issued every 10 minutes, with the page automatically refreshed every 10 minutes)

About coastal observations | Map of coastal stations | Coastal observations for TAS | Marine services | Other Formats
Station Details ID: 091293 Name: LOW HEAD Lat: -41.05 Lon: 146.79 Height: 3.0 m
Data from the previous 72 hours. | See also: Recent months at Low Head
Date/Time
EST
Temp

°C
Wind Pressure Rain
since 9am
mm
Weather Cloud Vis
km
Sea
Height
m
Swell
Dir
 
Speed
knots
Gust
knots
hPa Trend Height
m
Period
s
Dir
31/08:30am 7.6 SSE 12 16 1020.8 - 0.0 - - - - - - -
31/08:00am 6.8 SSE 9 14 1020.8 - 0.0 - - - - - - -
31/07:30am 6.1 SSE 10 15 1020.7 - 0.0 - - - - - - -
31/07:00am 5.9 SSE 10 15 1020.5 - 0.0 - - - - - - -
31/06:30am 6.2 SSE 13 17 1020.1 - 0.0 - - - - - - -
31/06:00am 6.2 SSE 15 19 1020.1 - 0.0 - - - - - - -
31/05:30am 6.4 SSE 16 20 1020.1 - 0.0 - - - - - - -
31/05:00am 6.6 SSE 16 21 1020.0 - 0.0 - - - - - - -
31/04:30am 6.8 SSE 17 21 1020.2 - 0.0 - - - - - - -
31/04:00am 7.0 S 19 25 1020.2 - 0.0 - - - - - - -
31/03:30am 7.1 SSE 19 25 1020.3 - 0.0 - - - - - - -
31/03:00am 7.0 SSE 17 23 1020.5 - 0.0 - - - - - - -
31/02:30am 7.0 SSE 15 19 1020.9 - 0.0 - - - - - - -
31/02:00am 7.0 SSE 15 20 1021.4 - 0.0 - - - - - - -
31/01:30am 6.7 SSE 13 18 1021.5 - 0.0 - - - - - - -
31/01:00am 6.9 SSE 13 18 1021.8 - 0.0 - - - - - - -
31/12:30am 7.4 SSE 14 19 1021.9 - 0.0 - - - - - - -
31/12:00am 7.7 SSE 17 21 1022.1 - 0.0 - - - - - - -
 
Date/Time
EST
Temp

°C
Wind Pressure Rain
since 9am
mm
Weather Cloud Vis
km
Sea
Height
m
Swell
Dir
 
Speed
knots
Gust
knots
hPa Trend Height
m
Period
s
Dir
30/11:30pm 7.8 SSE 14 21 1022.3 - 0.0 - - - - - - -
30/11:00pm 8.0 SSE 16 23 1022.6 - 0.0 - - - - - - -
30/10:30pm 8.0 SSE 16 23 1022.8 - 0.0 - - - - - - -
30/10:00pm 8.1 SSE 16 24 1022.8 - 0.0 - - - - - - -
30/09:30pm 8.4 SSE 14 19 1022.8 - 0.0 - - - - - - -
30/09:00pm 7.9 SE 9 13 1022.7 - 0.0 - - - - - - -
30/08:30pm 8.4 SSE 12 17 1022.7 - 0.0 - - - - - - -
30/08:00pm 8.8 SSE 16 19 1022.3 - 0.0 - - - - - - -
30/07:30pm 9.3 S 17 20 1022.2 - 0.0 - - - - - - -
30/07:00pm 9.6 S 16 21 1022.0 - 0.0 - - - - - - -
30/06:30pm 10.0 S 17 22 1021.9 - 0.0 - - - - - - -
30/06:00pm 10.6 S 19 22 1021.8 - 0.0 - - - - - - -
30/05:30pm 10.8 SSE 12 17 1021.7 - 0.0 - - - - - - -
30/05:00pm 11.6 S 11 16 1021.5 - 0.0 - - - - - - -
30/04:30pm 11.9 SSE 13 17 1021.5 - 0.0 - - - - - - -
30/04:00pm 12.4 SSE 12 18 1021.6 - 0.0 - - - - - - -
30/03:30pm 12.4 SSE 13 17 1021.6 - 0.0 - - - - - - -
30/03:00pm 12.7 SSE 14 17 1021.5 - 0.0 - - - - - - -
30/02:30pm 12.4 SSE 13 18 1021.6 - 0.0 - - - - - - -
30/02:00pm 12.4 SSE 13 19 1021.6 - 0.0 - - - - - - -
30/01:30pm 12.3 SSE 12 19 1021.8 - 0.0 - - - - - - -
30/01:00pm 12.0 SSE 15 20 1022.1 - 0.0 - - - - - - -
30/12:30pm 11.5 SE 15 21 1022.5 - 0.0 - - - - - - -
30/12:00pm 11.4 SSE 16 22 1022.9 - 0.0 - - - - - - -
30/11:30am 11.1 SSE 17 23 1023.3 - 0.0 - - - - - - -
30/11:00am 10.7 SE 16 22 1023.6 - 0.0 - - - - - - -
30/10:30am 10.1 SE 18 23 1023.8 - 0.0 - - - - - - -
30/10:00am 9.6 SSE 20 30 1023.7 - 0.0 - - - - - - -
30/09:48am 9.2 SSE 20 31 1023.9 - 0.0 - - - - - - -
30/09:30am 9.1 SSE 17 25 1023.9 - 0.0 - - - - - - -
30/09:00am 8.4 SSE 16 21 1023.9 - 0.0 - - - - - - -
30/08:58am 8.4 SSE 15 21 1023.9 - 0.0 - - - - - - -
30/08:30am 7.4 SSW 8 10 1024.1 - 0.0 - - - - - - -
30/08:00am 6.6 SSW 10 13 1024.0 - 0.0 - - - - - - -
30/07:30am 6.1 SSW 11 15 1023.8 - 0.0 - - - - - - -
30/07:00am 5.7 SSW 12 15 1023.4 - 0.0 - - - - - - -
30/06:30am 5.7 SW 12 14 1023.1 - 0.0 - - - - - - -
30/06:00am 6.2 SSW 15 18 1022.8 - 0.0 - - - - - - -
30/05:30am 6.1 SSW 13 16 1022.7 - 0.0 - - - - - - -
30/05:00am 5.8 SSW 13 15 1022.6 - 0.0 - - - - - - -
30/04:30am 5.5 SSW 9 11 1022.6 - 0.0 - - - - - - -
30/04:00am 6.0 SSW 12 14 1022.3 - 0.0 - - - - - - -
30/03:30am 6.1 SSW 13 15 1022.5 - 0.0 - - - - - - -
30/03:00am 6.1 S 15 16 1022.6 - 0.0 - - - - - - -
30/02:30am 6.6 S 13 15 1022.9 - 0.0 - - - - - - -
30/02:00am 6.9 SSW 11 16 1023.1 - 0.0 - - - - - - -
30/01:30am 7.3 S 13 15 1023.4 - 0.0 - - - - - - -
30/01:00am 6.5 SSE 9 11 1023.7 - 0.0 - - - - - - -
30/12:30am 7.3 SSW 9 12 1023.8 - 0.0 - - - - - - -
30/12:00am 7.7 SSW 13 15 1023.7 - 0.0 - - - - - - -
 
Date/Time
EST
Temp

°C
Wind Pressure Rain
since 9am
mm
Weather Cloud Vis
km
Sea
Height
m
Swell
Dir
 
Speed
knots
Gust
knots
hPa Trend Height
m
Period
s
Dir
29/11:30pm 8.2 S 14 17 1023.8 - 0.0 - - - - - - -
29/11:00pm 8.5 SSW 12 14 1024.0 - 0.0 - - - - - - -
29/10:30pm 8.8 S 14 16 1024.0 - 0.0 - - - - - - -
29/10:00pm 9.1 S 15 18 1024.0 - 0.0 - - - - - - -
29/09:30pm 8.9 S 10 15 1023.6 - 0.0 - - - - - - -
29/09:00pm 9.1 S 10 13 1023.6 - 0.0 - - - - - - -
29/08:30pm 9.6 S 12 17 1023.3 - 0.0 - - - - - - -
29/08:00pm 9.6 S 12 16 1022.9 - 0.0 - - - - - - -
29/07:30pm 10.0 S 15 19 1022.6 - 0.0 - - - - - - -
29/07:00pm 10.1 SSE 10 13 1022.1 - 0.0 - - - - - - -
29/06:30pm 10.4 SSE 9 13 1021.7 - 0.0 - - - - - - -
29/06:00pm 10.4 SSE 9 13 1021.2 - 0.0 - - - - - - -
29/05:30pm 10.9 SSE 9 11 1021.0 - 0.0 - - - - - - -
29/05:00pm 11.3 SSE 8 11 1020.6 - 0.0 - - - - - - -
29/04:30pm 11.7 SSE 11 15 1020.2 - 0.0 - - - - - - -
29/04:00pm 12.0 S 9 13 1019.9 - 0.0 - - - - - - -
29/03:30pm 12.4 S 11 13 1019.7 - 0.0 - - - - - - -
29/03:00pm 12.3 S 9 11 1019.5 - 0.0 - - - - - - -
29/02:30pm 12.4 S 12 14 1019.4 - 0.0 - - - - - - -
29/02:00pm 12.4 SSE 10 13 1019.3 - 0.0 - - - - - - -
29/01:30pm 11.8 SSE 6 7 1019.3 - 0.0 - - - - - - -
29/01:00pm 11.0 E 3 5 1019.4 - 0.0 - - - - - - -
29/12:30pm 10.7 CALM 0 0 1019.4 - 0.0 - - - - - - -
29/12:00pm 10.9 W 4 6 1019.8 - 0.0 - - - - - - -
29/11:30am 11.2 WNW 6 8 1019.8 - 0.0 - - - - - - -
29/11:00am 9.3 CALM 0 0 1020.0 - 0.0 - - - - - - -
29/10:30am 8.1 SSE 4 6 1020.1 - 0.0 - - - - - - -
29/10:00am 8.2 SSW 6 11 1020.0 - 0.0 - - - - - - -
29/09:30am 7.7 SSW 6 7 1019.9 - 0.0 - - - - - - -
29/09:00am 7.2 SW 6 7 1019.7 - 0.0 - - - - - - -
29/08:30am 6.4 S 5 6 1019.7 - 0.0 - - - - - - -
29/08:00am 6.0 S 5 5 1019.6 - 0.0 - - - - - - -
29/07:30am 5.8 S 6 7 1019.2 - 0.0 - - - - - - -
29/07:00am 5.1 SSE 7 7 1019.2 - 0.0 - - - - - - -
29/06:30am 5.0 SSE 7 9 1018.9 - 0.0 - - - - - - -
29/06:00am 5.4 SSE 9 11 1018.6 - 0.0 - - - - - - -
29/05:30am 6.1 S 5 7 1018.2 - 0.0 - - - - - - -
29/05:00am 6.9 SW 1 5 1017.8 - 0.0 - - - - - - -
29/04:30am 7.0 SW 2 4 1017.8 - 0.0 - - - - - - -
29/04:00am 7.6 SW 8 10 1018.0 - 0.0 - - - - - - -
29/03:30am 7.2 SW 7 10 1018.3 - 0.0 - - - - - - -
29/03:00am 6.8 SSW 8 12 1018.9 - 0.0 - - - - - - -
29/02:30am 7.1 WSW 12 14 1019.4 - 0.0 - - - - - - -
29/02:00am 7.4 WSW 16 19 1019.7 - 0.0 - - - - - - -
29/01:30am 7.5 WSW 19 22 1020.2 - 0.0 - - - - - - -
29/01:00am 7.4 WSW 23 25 1020.6 - 0.0 - - - - - - -
29/12:30am 7.2 WSW 17 19 1021.2 - 0.0 - - - - - - -
29/12:00am 7.3 WSW 15 17 1021.9 - 0.0 - - - - - - -
 
Date/Time
EST
Temp

°C
Wind Pressure Rain
since 9am
mm
Weather Cloud Vis
km
Sea
Height
m
Swell
Dir
 
Speed
knots
Gust
knots
hPa Trend Height
m
Period
s
Dir
28/11:30pm 7.4 WSW 13 16 1022.4 - 0.0 - - - - - - -
28/11:00pm 6.9 WSW 10 13 1023.0 - 0.0 - - - - - - -
28/10:30pm 7.0 W 10 13 1023.6 - 0.0 - - - - - - -
28/10:00pm 7.4 WSW 11 13 1024.1 - 0.0 - - - - - - -
28/09:30pm 7.7 SW 12 14 1024.2 - 0.0 - - - - - - -
28/09:00pm 7.7 SSW 12 14 1024.4 - 0.0 - - - - - - -
28/08:30pm 8.0 SSW 15 18 1024.3 - 0.0 - - - - - - -
28/08:00pm 7.2 S 9 11 1024.4 - 0.0 - - - - - - -
28/07:30pm 6.6 SSE 9 12 1024.1 - 0.0 - - - - - - -
28/07:00pm 6.6 SE 9 13 1024.1 - 0.0 - - - - - - -
28/06:30pm 7.0 SE 11 16 1024.1 - 0.0 - - - - - - -
28/06:00pm 7.9 SE 8 11 1023.8 - 0.0 - - - - - - -
28/05:30pm 8.6 SE 6 8 1023.5 - 0.0 - - - - - - -
28/05:00pm 9.3 SSE 7 10 1023.4 - 0.0 - - - - - - -
28/04:30pm 10.1 SE 6 10 1023.2 - 0.0 - - - - - - -
28/04:00pm 9.8 SE 9 14 1023.2 - 0.0 - - - - - - -
28/03:30pm 9.6 SE 10 15 1023.3 - 0.0 - - - - - - -
28/03:00pm 10.0 SE 9 13 1023.1 - 0.0 - - - - - - -
28/02:30pm 11.1 SSE 13 19 1023.3 - 0.0 - - - - - - -
28/02:00pm 11.2 S 16 20 1023.4 - 0.0 - - - - - - -
28/01:30pm 11.1 S 18 25 1023.5 - 0.0 - - - - - - -
28/01:00pm 11.3 SSE 15 19 1023.8 - 0.0 - - - - - - -
28/12:30pm 10.7 S 15 22 1024.0 - 0.0 - - - - - - -
28/12:00pm 10.5 S 18 23 1024.5 - 0.0 - - - - - - -
28/11:30am 10.2 SSE 19 24 1024.8 - 0.0 - - - - - - -
28/11:00am 9.9 S 21 26 1024.8 - 0.0 - - - - - - -
28/10:30am 9.7 S 21 27 1024.9 - 0.0 - - - - - - -
28/10:00am 9.5 SSE 15 21 1024.8 - 0.0 - - - - - - -
28/09:30am 8.8 SSE 15 21 1024.7 - 0.0 - - - - - - -
28/09:00am 8.3 SSE 17 25 1024.7 - 0.0 - - - - - - -
28/08:37am 8.0 SSE 19 31 1024.4 - 0.0 - - - - - - -

Other Formats:

Comma delimited format used in spreadsheet applications
http://www.bom.gov.au/fwo/IDT60701/IDT60701.95964.axf

JavaScript Object Notation format (JSON) in row-major order
http://www.bom.gov.au/fwo/IDT60701/IDT60701.95964.json